Tracking 29892 objects as of 21-Nov-2024
HD Live streaming from Space Station
objects crossing your sky now

STARLINK-32321

Track STARLINK-32321 now!
10-day predictions
STARLINK-32321 is classified as:


NORAD ID: 61065
Int'l Code: 2024-164R
Perigee: 453.7 km
Apogee: 455.0 km
Inclination: 53.2 °
Period: 93.5 minutes
Semi major axis: 6825 km
RCS: Unknown
Launch date: September 13, 2024
Source: United States (US)
Launch site: AIR FORCE WESTERN TEST RANGE (AFWTR)
Your satellite tracking list
Your tracking list is empty




NASA's NSSDC Master Catalog

Two Line Element Set (TLE):
1 61065U 24164R   24325.49054766  .00000874  00000-0  31823-4 0  9992
2 61065  53.1579 140.2550 0000955 108.5292 251.5817 15.39625200 10781
Source of the keplerian elements: AFSPC